This demonstration page uses our WeatherBlox Daily Observations layout. Learn more.

Left ArrowRight Arrow

Hourly Observations for November 1, 2021

Temp ( °F °C ) Dew Point ( °F °C ) Humidity (%) Winds ( mph kmh ) Pressure ( in mb ) Visibility ( mi km ) Precip ( " mm )
12:53 am 00:53 Cloudy 56 13.3 53 11.7 90 90 Calm 29.99 1016 10 16 0.00 0.00
1:53 am 01:53 Cloudy 57 13.9 54 12.2 90 90 Calm 29.99 1016 10 16 0.00 0.00
2:53 am 02:53 Cloudy 57 13.9 53 11.7 87 87 Calm 29.98 1015 10 16 0.00 0.00
3:53 am 03:53 Cloudy 56 13.3 54 12.2 93 93 Calm 29.98 1015 10 16 0.00 0.00
4:53 am 04:53 Mostly Cloudy 57 13.9 53 11.7 87 87 N 3 6 29.97 1015 10 16 0.00 0.00
5:53 am 05:53 Cloudy 56 13.3 53 11.7 90 90 Calm 29.98 1015 10 16 0.00 0.00
6:53 am 06:53 Cloudy with Light Rain 56 13.3 54 12.2 93 93 Calm 29.98 1015 5 8 0.04 1.02
7:53 am 07:53 Cloudy with Light Rain 56 13.3 54 12.2 93 93 Calm 29.98 1015 6 10 0.05 1.27
8:33 am 08:33 Cloudy with Rain 56 13.3 54 12.2 93 93 Calm 30.01 1016 3 4 0.07 1.78
8:53 am 08:53 Cloudy with Light Rain 56 13.3 54 12.2 93 93 Calm 30.00 1016 3 5 0.11 2.79
9:12 am 09:12 Cloudy with Rain 56 13.3 54 12.2 93 93 Calm 30.02 1017 3 5 0.02 0.51
9:53 am 09:53 Cloudy with Light Rain 56 13.3 54 12.2 93 93 Calm 30.02 1017 4 6 0.08 2.03
10:04 am 10:04 Cloudy with Rain 56 13.3 54 12.2 93 93 Calm 30.03 1017 3 5 0.02 0.51
10:42 am 10:42 Cloudy with Rain 56 13.3 55 12.8 97 97 ESE 3 6 30.03 1017 3 5 0.10 2.54
10:53 am 10:53 Cloudy with Light Rain 56 13.3 54 12.2 93 93 ESE 5 7 30.02 1017 4 6 0.12 3.05
11:18 am 11:18 Cloudy with Light Rain 56 13.3 54 12.2 93 93 ESE 3 6 30.02 1017 4 6 0.02 0.51
11:40 am 11:40 Cloudy with Light Rain 56 13.3 54 12.2 93 93 SE 3 6 30.02 1017 4 6 0.06 1.52
11:53 am 11:53 Cloudy 56 13.3 54 12.2 93 93 SE 3 6 30.02 1017 8 13 0.06 1.52
11:55 am 11:55 Cloudy with Light Rain 56 13.3 54 12.2 93 93 SE 3 6 30.02 1017 7 11 0.00 0.00
12:22 pm 12:22 Cloudy with Light Rain 57 13.9 54 12.2 90 90 S 5 7 30.02 1017 5 8 0.02 0.51
12:53 pm 12:53 Cloudy with Light Rain 57 13.9 54 12.2 90 90 S 9 15 30.01 1016 8 13 0.04 1.02
1:53 pm 13:53 Cloudy 58 14.4 55 12.8 90 90 SSW 5 7 29.99 1016 9 14 0.00 0.00
2:14 pm 14:14 Cloudy 58 14.4 55 12.8 90 90 SSW 5 7 30.00 1016 9 14 0.00 0.00
2:53 pm 14:53 Cloudy 59 15 55 12.8 87 87 S 7 11 29.99 1016 7 11 0.00 0.00
3:53 pm 15:53 Cloudy 60 15.6 56 13.3 86 86 S 12 19 30.00 1016 9 14 0.00 0.00
4:19 pm 16:19 Cloudy with Light Rain 60 15.6 56 13.3 86 86 S 13 20 30.01 1016 9 14 0.02 0.51
4:53 pm 16:53 Cloudy with Light Rain 59 15 56 13.3 90 90 S 9 15 30.01 1016 9 14 0.03 0.76
5:05 pm 17:05 Cloudy 60 15.6 56 13.3 86 86 S 9 15 30.02 1016 7 11 0.00 0.00
5:53 pm 17:53 Cloudy with Mist and Fog 59 15 56 13.3 90 90 S 17 28 30.01 1016 6 10 0.00 0.00
6:22 pm 18:22 Cloudy 59 15 55 12.8 87 87 S 22 35 30.02 1017 10 16 0.00 0.00
6:33 pm 18:33 Cloudy 58 14.4 55 12.8 90 90 S 17 28 30.03 1017 9 14 0.00 0.00
6:53 pm 18:53 Cloudy 58 14.4 55 12.8 90 90 SSE 20 31 30.03 1017 10 16 0.00 0.00
7:53 pm 19:53 Cloudy 59 15 55 12.8 87 87 S 9 15 30.05 1018 10 16 0.00 0.00
8:53 pm 20:53 Cloudy 59 15 55 12.8 87 87 S 9 15 30.06 1018 10 16 0.00 0.00
9:53 pm 21:53 Cloudy 60 15.6 55 12.8 84 84 S 13 20 30.08 1019 8 13 0.00 0.00
10:53 pm 22:53 Cloudy 60 15.6 55 12.8 84 84 S 17 28 30.10 1019 8 13 0.00 0.00
11:13 pm 23:13 Cloudy 60 15.6 55 12.8 84 84 S 15 24 30.11 1020 9 14 0.00 0.00
11:53 pm 23:53 Cloudy 60 15.6 55 12.8 84 84 SSE 14 22 30.11 1020 9 14 0.00 0.00

Powered by AerisWeather